www.pogodaiklimat.ru

Погода и климат >> Архив погоды >> Нидерланды >> Хогевен


ПОГОДА в Хогевене

  • Прогноз погоды в Хогевене
  • Монитор погоды в Хогевене

АРХИВ ПОГОДЫ в Хогевене

Время (UTC), дата Ветер
(напр.,м/с)
 
Видим.   Явления Облачность Т
(С)
Тd
(С)
f
(%)
Тe
(С)
Тes
(С)
Комфортность P
(гПа)
Po
(гПа)
Тmin
(С)
Tmax
(С)
R
(мм)
R24
(мм)
S
(см)
10 12.07 З 1 16 км 9/9 1000 м
[]
+20.9 +14.7 68 +25 +27 комфорт 1010.4 1008.3
11 12.07 Ю 2 12 км гроза без осадков 10/6 1000 м
[]
+22.5 +15.3 64 +26 +30 жарко 1010.1 1008.1
12 12.07 С 2-3
{8}
11 км гроза без осадков 9 баллов +21.4 +16.2 72 +25 +27 комфорт 1010.1 1008.0 0.0
13 12.07 З 5 14 км гроза без осадков 10/9 1000 м
[]
+20.4 +15.3 73 +23 +23 комфорт 1010.4 1008.2
14 12.07 З 5 21 км гроза без осадков 10/10
[]
+19.8 +15.3 75 +22 +22 комфорт 1010.9 1008.8
15 12.07 СЗ 5-8
{10}
27 км гроза без осадков 10 баллов +18.7 +12.5 67 +19 +20 1011.3 1009.2
16 12.07 СЗ 3 4200 м ливневой дождь {гроза} 10/6 1000 м
[]
+16.9 +16.2 96 +17 +18 1011.2 1009.2 3
17 12.07 СЗ 4 13 км в посл. час дождь {гроза} 10/10
[]
+18.3 +16.1 87 +19 +19 1011.5 1009.4 0.7
18 12.07 СЗ 3-4
{10}
16 км {гроза, дождь} 10 баллов +18.1 +15.9 87 +18 +18 1012.0 1009.9 +22.8 4
19 12.07 СЗ 2 11 км 9/8 600 м
[]
+17.7 +16.3 92 +18 +18 1012.7 1010.5
20 12.07 С 3 45 км 8/8
[]
+16.4 +14.6 89 +16 +16 1013.2 1011.1
21 12.07 С 2-3
{4}
45 км 10 баллов +15.9 +14.5 91 +16 +16 1013.7 1011.6
22 12.07 СЗ 2-2
{2}
24 км 8/8 1000 м
[]
+14.7 +14.0 96 +14 +14 1014.1 1012.0
23 12.07 СЗ 2-3
{3}
9000 м дымка 9/9 1000 м
[]
+14.7 +14.6 99 +14 +14 1014.6 1012.4
00 13.07 СЗ 3-4
{4}
10 км 10 баллов +15.1 +14.6 97 +14 +14 1014.6 1012.5
01 13.07 СЗ 2-3
{4}
6000 м дымка 9/9 600 м
[]
+14.6 +14.4 99 +14 +14 1014.7 1012.6
03 13.07 н/о н/о
04 13.07 СЗ 3 15 км 10/10 600 м
[]
+14.8 +13.8 94 +14 +14 1015.5 1013.4
05 13.07 СЗ 3-5
{5}
12 км 10/9 300 м
[]
+14.8 +13.9 94 +14 +14 1015.9 1013.7
06 13.07 СЗ 4-6
{6}
19 км 10 баллов +15.1 +14.0 93 +14 +14 1016.5 1014.4 +13.8
07 13.07 СЗ 4-5
{7}
14 км 10/10 600 м
[]
+15.2 +13.8 91 +14 +14 1017.0 1014.8
08 13.07 С 4-6
{6}
30 км 9/9 600 м
[]
+17.7 +14.5 82 +17 +18 1017.2 1015.1
09 13.07 С 4-7
{7}
40 км 10 баллов +18.1 +13.2 73 +18 +18 1017.6 1015.4
10 13.07 С 4-6
{8}
40 км 10/6 1000 м
[]
+18.7 +13.5 72 +19 +21 1017.7 1015.6
11 13.07 СЗ 4-7
{7}
40 км 8/8 1000 м
[]
+20.5 +12.9 62 +23 +25 комфорт 1017.6 1015.6
12 13.07 СЗ 5-7
{8}
40 км 10 баллов +19.4 +13.0 66 +21 +21 комфорт 1017.9 1016.0 0.0
13 13.07 СЗ 6-9
{9}
35 км 10/10 1000 м
[]
+20.2 +13.1 64 +22 +22 комфорт 1018.0 1015.9
14 13.07 СЗ 6-9
{9}
40 км 6/6 1000 м
[]
+19.8 +12.2 62 +21 +23 комфорт 1017.9 1015.8
15 13.07 СЗ 6-9
{10}
30 км 4 балла +19.6 +11.8 61 +21 +23 комфорт 1018.2 1016.0
16 13.07 СЗ 6-9
{10}
40 км 9/9 600 м
[]
+16.7 +11.7 72 +16 +16 1018.6 1016.5
17 13.07 СЗ 4-7
{8}
45 км 10/10 600 м
[]
+16.2 +12.5 79 +15 +15 1018.6 1016.5
18 13.07 С 4-6
{10}
35 км 10 баллов +15.7 +12.8 83 +15 +15 1018.9 1016.8 +21.3 0.0
19 13.07 СЗ 4-6
{8}
35 км 10/10 600 м
[]
+15.6 +11.2 75 +15 +15 1019.4 1017.2
20 13.07 СЗ 3-4
{7}
45 км 10/10 600 м
[]
+15.1 +11.1 77 +14 +14 1019.7 1017.6
21 13.07 СЗ 4-6
{8}
35 км 10 баллов +14.7 +11.0 78 +13 +13 1019.9 1018.0
22 13.07 СЗ 3-6
{7}
30 км 10/10 600 м
[]
+14.3 +10.3 77 +13 +13 1019.9 1017.9
23 13.07 СЗ 3-4
{7}
30 км 10/10 600 м
[]
+13.9 +9.7 76 +13 +13 1019.9 1017.8
00 14.07 СЗ 3-4
{8}
28 км 10 баллов +13.7 +9.9 78 +13 +13 1019.8 1017.8
01 14.07 СЗ 2-3
{4}
22 км 10/10 600 м
[]
+13.5 +10.3 81 +13 +13 1019.7 1017.6
02 14.07 СЗ 2-3
{6}
26 км 10/10 600 м
[]
+13.1 +10.8 86 +12 +12 1019.5 1017.4
03 14.07 СЗ 2-4
{6}
6000 м слаб. морось {дождь} 10 баллов +12.3 +12.0 98 +11 +11 1019.5 1017.4 0.2
04 14.07 СЗ 2 11 км в посл. час морось {дождь} 10/10 600 м
[]
+12.4 +12.0 97 +11 +11 1019.4 1017.4
05 14.07 СЗ 2 18 км {дождь, морось} 10/10 600 м
[]
+12.8 +11.6 92 +12 +12 1019.3 1017.3
06 14.07 СЗ 2-4
{6}
24 км {дождь, морось} 10 баллов +13.2 +11.6 90 +12 +12 1019.6 1017.5 +12.3 0.2
07 14.07 СЗ 2 20 км 10/9 600 м
[]
+13.6 +11.7 88 +13 +13 1019.7 1017.6
08 14.07 С 4 9000 м слаб. ливневой дождь 10/8 300 м
[]
+13.7 +12.0 89 +12 +13 1020.0 1017.9
09 14.07 С 3-4
{6}
40 км в посл. час дождь {ливн. осадки, морось} 10 баллов +14.9 +12.1 83 +14 +14 1020.2 1018.1
10 14.07 С 3 35 км в посл. час дождь {ливн. осадки, морось} 10/10 600 м
[]
+15.4 +12.3 82 +15 +15 1020.4 1018.3
11 14.07 45 км {ливн. осадки, морось} 10/6 600 м
[]
+15.9 +11.1 73 1020.4 1018.3
12 14.07 С 5-8
{8}
45 км {ливн. осадки, морось} 10 баллов +16.2 +11.2 72 +15 +15 1020.4 1018.3 0.0
13 14.07 СЗ 5 35 км 10/10 600 м
[]
+17.4 +11.0 66 +17 +17 1020.3 1018.2
14 14.07 СЗ 4 40 км 10/10 600 м
[]
+16.2 +10.8 70 +16 +16 1020.4 1018.2
15 14.07 С 4-6
{8}
30 км 10 баллов +16.2 +11.0 71 +16 +16 1020.3 1018.2
16 14.07 С 4 35 км 10/10 600 м
[]
+15.9 +10.5 70 +15 +15 1020.3 1018.2
17 14.07 СЗ 5 35 км 10/10 600 м
[]
+15.6 +10.0 69 +14 +14 1020.1 1018.0
18 14.07 СЗ 3-4
{8}
40 км 10 баллов +15.3 +10.3 72 +15 +15 1020.1 1018.1 +17.6 0.0
19 14.07 С 3 35 км 10/10 600 м
[]
+15.0 +10.4 74 +14 +14 1020.3 1018.2
20 14.07 С 3 25 км 10/10 600 м
[]
+14.7 +10.3 75 +14 +14 1020.6 1018.5
21 14.07 СЗ 2-4
{5}
20 км 10 баллов +14.1 +11.1 82 +14 +14 1020.6 1018.5
22 14.07 СЗ 2-3
{5}
18 км 10/10 600 м
[]
+13.8 +11.5 86 +13 +13 1020.7 1018.6
23 14.07 СЗ 2-4
{4}
22 км 10/10 600 м
[]
+13.7 +11.2 85 +13 +13 1020.4 1018.4
00 15.07 СЗ 4-6
{6}
26 км 10 баллов +13.5 +10.9 84 +12 +12 1020.5 1018.4
01 15.07 СЗ 2-3
{4}
23 км 10/10 300 м
[]
+13.3 +11.0 86 +13 +13 1020.4 1018.3
02 15.07 СЗ 2-3
{5}
25 км 10/10 600 м
[]
+13.1 +10.7 85 +12 +12 1019.8 1017.8
03 15.07 СЗ 3-4
{6}
15 км 10 баллов +12.9 +10.4 85 +11 +11 1019.6 1017.5
04 15.07 СЗ 2 18 км 10/10 300 м
[]
+12.8 +10.4 85 +12 +12 1019.8 1017.7
05 15.07 З 2 21 км 10/10 600 м
[]
+12.9 +10.3 84 +12 +12 1019.8 1017.6
06 15.07 З 2-4
{6}
22 км 10 баллов +13.4 +10.2 81 +13 +13 1019.8 1017.7 +12.7
07 15.07 СЗ 2 11 км в посл. час дождь {морось} 10/9 300 м
[]
+12.5 +11.3 92 +12 +12 1020.0 1018.0
08 15.07 СЗ 2 30 км {морось, дымка} 10/8 300 м
[]
+13.7 +10.9 83 +13 +14 1020.1 1018.0
09 15.07 СЗ 3-5
{6}
30 км {морось, дымка} 10 баллов +14.3 +9.6 73 +13 +13 1020.1 1018.0
10 15.07 СЗ 3 21 км {морось, дымка} 10/10 600 м
[]
+16.0 +10.3 69 +16 +16 1019.9 1017.9
11 15.07 З 3 24 км {морось, дымка} 10/10 1000 м
[]
+16.5 +9.6 64 +16 +16 1019.8 1017.7
12 15.07 СЗ 4-7
{7}
35 км {морось, дымка} 10 баллов +17.8 +10.4 62 +18 +18 1019.6 1017.5 0.0
13 15.07 СЗ 4 40 км 10/10 1000 м
[]
+18.2 +11.2 64 +18 +18 1019.4 1017.3
14 15.07 СЗ 6 40 км 10/9 1000 м
[]
+18.7 +11.1 61 +19 +19 1019.3 1017.2
15 15.07 СЗ 5-7
{9}
35 км 9 баллов +17.8 +9.7 59 +17 +18 1019.3 1017.2
16 15.07 СЗ 5 30 км 10/10
[]
+18.4 +9.4 56 +18 +18 1019.3 1017.2
17 15.07 С 4 30 км 8/8
[]
+16.8 +9.5 62 +16 +17 1019.3 1017.1
18 15.07 С 4-6
{9}
30 км 10 баллов +16.0 +10.3 69 +15 +15 1019.2 1017.1 +19.9 0.0
19 15.07 СЗ 4 40 км 10/10 600 м
[]
+15.2 +10.5 74 +14 +14 1019.3 1017.1
20 15.07 СЗ 4 30 км 10/9 300 м
[]
+14.4 +11.2 81 +13 +13 1019.6 1017.5
21 15.07 СЗ 3-5
{7}
40 км 10 баллов +14.1 +11.7 85 +13 +13 1019.6 1017.5
22 15.07 СЗ 3-5
{5}
19 км слаб. ливневой дождь 10/9 300 м
[]
+13.6 +11.8 89 +12 +12 1019.5 1017.4
23 15.07 З 2-4
{4}
45 км в посл. час дождь {ливн. осадки, морось} 10/10 600 м
[]
+13.5 +11.7 89 +13 +13 1019.2 1017.1
00 16.07 З 3-4
{7}
40 км {ливн. осадки, морось} 10 баллов +13.5 +11.9 90 +12 +12 1019.2 1017.1
01 16.07 З 3-4
{5}
45 км 10/10 300 м
[]
+13.7 +11.5 87 +13 +13 1019.0 1016.9
02 16.07 З 3-4
{5}
45 км 10/10 300 м
[]
+13.7 +11.2 85 +13 +13 1018.8 1016.8
03 16.07 СЗ 3-4
{8}
40 км 10 баллов +13.6 +10.7 83 +12 +12 1018.5 1016.4
04 16.07 СЗ 3 28 км 10/10 300 м
[]
+13.5 +11.1 85 +12 +12 1018.6 1016.5
05 16.07 З 2 21 км 10/10 300 м
[]
+13.5 +11.6 88 +13 +13 1018.6 1016.4
06 16.07 З 3-6
{8}
21 км 10 баллов +13.7 +11.9 89 +12 +12 1018.6 1016.5 +13.4
07 16.07 СЗ 4 21 км 10/10 300 м
[]
+14.0 +11.8 87 +13 +13 1018.8 1016.6
08 16.07 СЗ 5 27 км 10/10 300 м
[]
+14.4 +12.0 85 +13 +13 1018.8 1016.8
09 16.07 СЗ 3-5
{7}
25 км 10 баллов +15.1 +12.6 85 +14 +14 1019.0 1016.8
10 16.07 СЗ 4 25 км 10/10 300 м
[]
+16.0 +12.8 81 +15 +15 1018.9 1016.8
11 16.07 З 4 30 км 10/10 300 м
[]
+15.6 +12.4 81 +15 +15 1018.8 1016.7
12 16.07 З 4-6
{7}
35 км 10 баллов +16.1 +12.5 79 +15 +15 1018.7 1016.5
13 16.07 СЗ 4 28 км 10/10 300 м
[]
+16.1 +12.8 81 +15 +15 1018.5 1016.4
14 16.07 СЗ 4 24 км 10/10 300 м
[]
+16.6 +12.8 78 +16 +16 1018.6 1016.5
15 16.07 З 3-5
{7}
35 км 10 баллов +16.4 +12.7 79 +16 +16 1018.4 1016.4
16 16.07 З 2 35 км 10/10 300 м
[]
+16.3 +12.7 79 +16 +16 1018.2 1016.2
17 16.07 З 3 29 км 10/10 300 м
[]
+16.0 +12.8 81 +16 +16 1018.2 1016.1
18 16.07 З 2-3
{7}
25 км 10 баллов +15.7 +12.6 82 +16 +16 1018.1 1016.0 +16.8
19 16.07 СЗ 3 28 км 10/10 300 м
[]
+15.6 +12.4 81 +15 +15 1018.1 1016.0
20 16.07 СЗ 1 26 км 10/10 600 м
[]
+15.0 +12.5 85 +16 +16 1018.0 1015.8
21 16.07 СЗ 1-2
{4}
26 км 10 баллов +14.6 +13.0 90 +15 +15 1017.9 1015.8
22 16.07 С 1-2
{3}
30 км 10/10 300 м
[]
+14.7 +12.4 86 +15 +15 1017.9 1015.8
23 16.07 С 2-3
{4}
27 км 10/10 300 м
[]
+14.7 +12.2 85 +14 +14 1017.9 1015.7
00 17.07 СЗ 1-1
{4}
23 км 10 баллов +14.4 +12.6 89 +15 +15 1017.5 1015.5
01 17.07 СЗ 1-1
{2}
20 км 10/10 300 м
[]
+14.2 +12.8 91 +14 +14 1017.3 1015.2
02 17.07 С 1-1
{2}
23 км 10/10 300 м
[]
+13.9 +12.3 90 +14 +14 1017.0 1015.0
03 17.07 С 2-3
{3}
30 км 10 баллов +13.8 +12.1 89 +13 +13 1016.9 1014.8
04 17.07 С 1 45 км 10/10 300 м
[]
+13.7 +12.0 89 +14 +14 1016.9 1014.8
05 17.07 штиль 0 45 км 10/10 300 м
[]
+14.4 +11.8 84 +14 +14 1016.8 1014.7
06 17.07 СЗ 1-2
{3}
40 км 10 баллов +14.6 +11.5 82 +15 +15 1016.8 1014.6 +13.7
07 17.07 С 1 35 км 10/10 300 м
[]
+15.1 +11.9 81 +16 +16 1016.8 1014.7
08 17.07 штиль 0 40 км 10/10 300 м
[]
+16.2 +12.2 77 +16 +16 1016.7 1014.6
09 17.07 СВ 1-3
{3}
30 км 10 баллов +17.4 +12.4 72 +18 +18 1016.5 1014.4
10 17.07 СЗ 1 35 км 8/8 300 м
[]
+18.6 +12.7 69 +20 +24 1016.4 1014.3
11 17.07 С 2 35 км 5/5 600 м
[]
+19.7 +13.0 65 +22 +30 комфорт 1016.3 1014.2
12 17.07 З 1-3
{4}
35 км 1 балл +21.7 +12.6 56 +24 +41 комфорт 1015.7 1013.7
13 17.07 В 2 40 км 3/3 1500 м
[]
+22.1 +11.7 52 +24 +35 комфорт 1015.2 1013.1
14 17.07 С 2 40 км 3/3 1000 м
[]
+22.9 +10.0 44 +25 +33 комфорт 1014.9 1012.8
15 17.07 С 1-2
{4}
45 км 10 баллов +22.3 +10.9 48 +24 +24 комфорт 1014.6 1012.5
16 17.07 ЮВ 2-3
{3}
40 км 9/9 2000 м
[]
+22.0 +11.9 53 +24 +25 комфорт 1014.1 1012.2
17 17.07 В 2-3
{3}
24 км 9/9
[]
+22.8 +12.2 51 +25 +26 комфорт 1013.7 1011.8
18 17.07 ЮВ 2-2
{4}
45 км 9 баллов +20.7 +12.6 60 +24 +24 комфорт 1013.6 1011.7 +24.5
19 17.07 штиль 0-1
{2}
45 км 1/1
[]
+19.8 +15.2 75 +22 +22 комфорт 1013.6 1011.7
20 17.07 нст 1-1
{1}
45 км 10/10
[]
+16.7 +15.1 90 +18 +18 1013.7 1011.8
21 17.07 ЮВ 1-1
{2}
30 км 8 баллов +14.7 +14.1 96 +15 +15 1013.5 1011.5
22 17.07 ЮВ 1-1
{1}
28 км 8/8
[]
+13.4 +13.0 97 +13 +13 1013.5 1011.4
23 17.07 ЮВ 1-1
{1}
18 км 10/10
[]
+11.9 +11.8 99 +12 +12 1013.3 1011.4
00 18.07 ЮВ 1-1
{2}
2400 м дымка 10 баллов +11.6 +11.6 100 +11 +11 1013.3 1011.3
01 18.07 В 1-2
{2}
7000 м дымка 10/10
[]
+11.3 +11.3 100 +11 +11 1012.9 1010.8
02 18.07 ЮВ 1-1
{2}
11 км 10/10
[]
+11.3 +11.3 100 +11 +11 1012.5 1010.4
03 18.07 ЮВ 2-3
{3}
8000 м дымка 10 баллов +10.9 +10.6 98 +9 +9 1012.2 1010.1
04 18.07 Ю 1-2
{3}
9000 м дымка 10/10
[]
+12.2 +11.5 95 +12 +12 1011.9 1010.0
05 18.07 ЮВ 2 8000 м дымка 10/10
[]
+12.9 +12.1 95 +12 +12 1011.7 1009.6
06 18.07 ЮВ 2-3
{3}
10 км {дымка} 10 баллов +15.4 +13.4 88 +15 +15 1011.6 1009.6 +10.5
07 18.07 Ю 4 16 км 10/10
[]
+18.7 +13.4 71 +19 +19 1011.6 1009.5
08 18.07 ЮВ 4 24 км 10/10
[]
+20.0 +13.0 64 +22 +22 комфорт 1011.3 1009.3
09 18.07 Ю 4-6
{7}
25 км 10 баллов +20.9 +13.3 62 +24 +24 комфорт 1011.2 1009.1
10 18.07 Ю 6 35 км 9/9
[]
+24.2 +11.7 46 +26 +26 жарко 1010.8 1008.7
11 18.07 Ю 5 28 км 10/10
[]
+24.9 +11.7 44 +26 +26 жарко 1010.4 1008.3
12 18.07 Ю 6-8
{9}
30 км 9 баллов +25.1 +11.5 43 +27 +27 жарко 1010.2 1008.1
13 18.07 ЮЗ 5 24 км 10/10
[]
+24.5 +12.3 47 +26 +26 жарко 1009.9 1007.7
14 18.07 ЮЗ 6 20 км 9/9
[]
+24.9 +12.7 47 +27 +27 жарко 1009.8 1007.6
15 18.07 З 6-8
{9}
25 км 10 баллов +24.3 +13.0 49 +26 +26 жарко 1009.9 1007.7
16 18.07 З 5 29 км 10/8
[]
+23.9 +12.6 49 +26 +26 жарко 1010.0 1007.9
17 18.07 З 6 20 км 10/10
[]
+22.5 +14.1 59 +26 +26 жарко 1010.2 1008.1
18 18.07 З 3-5
{9}
23 км 10 баллов +21.3 +14.5 65 +24 +24 комфорт 1010.4 1008.3 +26.2
19 18.07 З 2 24 км 10/10 1500 м
[]
+20.1 +14.8 72 +23 +23 комфорт 1010.6 1008.4
20 18.07 штиль 0 22 км 10/10 1000 м
[]
+19.4 +14.7 74 +21 +21 комфорт 1010.8 1008.7
21 18.07 ЮЗ 2-4
{8}
4300 м слаб. ливневой дождь {морось} 10 баллов +17.2 +16.7 97 +18 +18 1011.2 1009.1 0.7
22 18.07 ЮЗ 5-7
{7}
4900 м морось с дождем {ливн. осадки} 10/6 600 м
[]
+17.3 +16.4 94 +17 +17 1011.1 1009.1
23 18.07 ЮЗ 3-4
{6}
7000 м в посл. час дождь {ливн. осадки, морось} 10/10 300 м
[]
+17.2 +16.6 96 +17 +17 1011.2 1009.2
00 19.07 З 4-5
{8}
10 км {ливн. осадки, морось} 9 баллов +17.0 +16.4 96 +16 +16 1011.4 1009.3 0.8
01 19.07 З 3-4
{6}
11 км 10/6 300 м
[]
+16.3 +15.8 97 +16 +16 1011.8 1009.8
02 19.07 З 2-4
{4}
10 км 10/10 600 м
[]
+16.3 +15.9 97 +16 +16 1012.0 1010.0
03 19.07 З 2-3
{6}
6000 м дымка 10 баллов +15.1 +14.9 99 +15 +15 1012.3 1010.2
04 19.07 З 2 5000 м дымка 10/10
[]
+14.6 +14.5 99 +14 +14 1012.5 1010.4
05 19.07 С 1 100 м туман {дымка} 10/10
[]
+13.7 +13.7 100 +14 +14 1012.8 1010.7
06 19.07 З 1-2
{6}
5000 м в посл. час туман {дымка} 10 баллов +15.2 +15.2 100 +16 +16 1013.3 1011.2 +13.7 0.8
07 19.07 С 1 18 км 9/9 2000 м
[]
+16.7 +15.3 91 +18 +18 1013.5 1011.4
08 19.07 ЮЗ 1 40 км 5/5
[]
+19.0 +12.9 68 +21 +26 комфорт 1013.7 1011.6
09 19.07 ЮЗ 2-3
{3}
40 км 3 балла +20.6 +10.6 53 +23 +31 комфорт 1013.9 1011.8

 

Местоположение метеостанции Хогевен (Нидерланды): широта 52.75 долгота 6.52 высота над уровнем моря 16 м.

В архиве по умолчанию представлена погода в Хогевене за последнюю неделю. Архивные данные за месяц целиком и за предыдущие месяцы, начиная с января 2011 года, Вы можете получить, выбрав интересующий диапазон дат из раскрывающегося списка и нажав кнопку "Ввод!".


*Определитесь, кто Вы:
робот инопланетянин человек

Внимание! Время в таблицах - всемирное. Для получения местного времени необходимо прибавить поправку, которая равна 1 ч.

Смотрите также архив погоды в соседних городах и на ближайших метеорологических станциях:

Погода в Хайно (Нидерланды) (39 км)
Погода в Гронингене (Нидерланды) (42 км)
Погода в Маркнесе (Нидерланды) (43 км)
Погода в Меппене (Германия) (54 км)
Погода в Твенте (Нидерланды) (59 км)
Погода в Лингене (Германия) (60 км)
Погода в Ниев-Берта (Нидерланды) (65 км)
Погода в Леувардене (Нидерланды) (72 км)
Погода в Лелистаде (Нидерланды) (75 км)
Погода в Хупселе (Нидерланды) (76 км)

Пояснения к столбцам:

Ветер - указаны скорость ветра в м/с - средняя за 10 мин, порывы в срок и между сроками (в фигурных скобках) и направление, откуда дует ветер: С - северный, СВ - северо-восточный, В - восточный, ЮВ - юго-восточный, Ю - южный, ЮЗ - юго-западный, З - западный, СЗ - северо-западный.
Видимость - горизонтальная дальность видимости в метрах или километрах. При видимости от 1 до 10 км при отсутствии осадков обычно наблюдается дымка, при ухудшении видимости до 1 км и менее - туман. В сухую погоду видимость может ухудшаться дымом, пылью или мглою.
Явления - указаны атмосферные явления, наблюдавшиеся в срок или в последний час перед сроком; фигурными скобками обозначены явления, наблюдавшиеся между сроками (за 1-3 часа до срока); квадратными скобками обозначены град или гололедные отложения с указанием их диаметра в мм.
Облачность - указаны через наклонную черту общая и нижняя облачность в баллах и высота нижней границы облаков в метрах; квадратными скобками обозначены формы облаков: Ci - перистые, Cs - перисто-слоистые, Cc - перисто-кучевые, Ac - высококучевые, As - высокослоистые, Sc - слоисто-кучевые, Ns - слоисто-дождевые, Cu - кучевые, Cb - кучево-дождевые. Подробнее классификацию облаков см. в Атласе облаков (PDF).
T - Температура воздуха - температура, измеренная на высоте 2 м над землей.
Td - Температура точки росы - температура, при понижении до которой содержащийся в воздухе водяной пар достигнет насыщения.
f - Относительная влажность воздуха - влажноcть воздуха, измеренная на высоте 2 м над землей.
Te - Эффективная температура - температура, которую ощущает одетый по сезону человек в тени. Характеристика душности погоды. При расчете учитывается влияние влажности воздуха и скорости ветра на теплоощущения человека.
Tes - Эффективная температура на солнце - температура, которую ощущает человек, с поправкой на солнечный нагрев. Характеристика знойности погоды. Зависит от высоты солнца над горизонтом, облачности и скорости ветра. Ночью, в пасмурную погоду, а также при ветре 12 м/с и более поправка равна нулю.
P - Атмосферное давление - приведенное к уровню моря атмосферное давление.
Po - Атмосферное давление - измеренное на уровне метеостанции атмосферное давление.
Tmin - Минимальная температура - минимум температуры воздуха на высоте 2 м над землей.
Tmax - Максимальная температура - максимум температуры воздуха на высоте 2 м над землей.
R - Количество осадков - Количество выпавших осадков за период времени, мм. При наведении курсора мыши на число - период времени, за который выпало указанное количество осадков.
R24 - Количество осадков - Количество выпавших осадков за 24 часа, мм.
S - Снежный покров - Высота снежного покрова, см. При наведении курсора мыши на число - состояние снежного покрова и степень покрытия местности в баллах.